カタログに戻る

ATLAS 5 CENTAUR DEB

運用中HEO
NORAD 44107·DEBRIS·🇺🇸 United States

打ち上げ Sep 17, 2014 から Cape Canaveral Space Force Station

Loading…

次のパス (今後24時間)

TLE

最新Source: Space-Track

元期: Sep 13, 2026, 05:01 UTC

1 44107U 14055CC  26256.20938506 -.00000028  00000-0  00000-0 0  9996
2 44107  19.1095 182.1674 4751046  98.6460 315.8987  1.75839337 48089

AllMySatでATLAS 5 CENTAUR DEBをリアルタイム追跡

Download on the App Store